Погода в Покровском

Украина / Днепропетровская область     47°58′56″N   36°14′01″E
темп.,
°C
ветер,
м/с
пор.,
м/с
влажн.,
%
обл.,
%
осадки,
мм/ч
давл.,
гПа
погр.,
м
4 июля, пн
пн400:00+18с2260100 0.0 101711
03:00+17с33710 0.0 101722
06:00+18ссз24693 0.0 101798
09:00+25ссз45530 0.0 1017784
12:00+29ссз453868 0.0 10162691
15:00+28сз233971 0.0 10151287
18:00+30с443472 0.0 10142121
21:00+23ссв465824 0.0 101581
5 июля, вт
вт500:00+20с22640 0.0 101616
03:00+19св22708 0.0 101619
06:00+20ссв2269100 0.0 101635
09:00+27ссв2247100 0.0 1016500
12:00+31ссв213323 0.0 10152928
15:00+31с423026 0.0 10142483
18:00+30св453515 0.0 10141061
21:00+24св345667 0.0 101562
6 июля, ср
ср600:00+21в22611 0.0 101620
03:00+20вюв33620 0.0 101534
06:00+20в23652 0.0 101681
09:00+28юв34321 0.0 1016699
12:00+31юв332711 0.0 10152627
15:00+32вюв332488 0.0 10142959
18:00+32в542534 0.0 10132697
21:00+25вюв493630 0.0 1014138
7 июля, чт
чт700:00+23вюв4124116 0.0 1014301
03:00+19юв353811 0.0 101584
06:00+19вюв37420 0.0 1015142
09:00+27вюв56290 0.0 1015824
12:00+31в67200 0.0 10142202
15:00+32в56180 0.0 10122780
18:00+32в67190 0.0 10112992
21:00+24всв410320 0.0 1012149
8 июля, пт
пт800:00+20в410430 0.0 1012154
03:00+19вюв412440 0.0 1012186
06:00+19вюв411470 0.0 1012225
09:00+27в710300 0.0 10121154
12:00+30вюв78210 0.0 10112061
15:00+32вюв782345 0.0 10092891
18:00+32юв672472 0.0 10082943
21:00+25ююв354232 0.0 100870